Eau Claire, WI

8:45 PM CDT on September 27, 2016 (GMT -0500)
Chippewa Valley Regional

Weather History for KEAU - May, 2013

Change the Weather History Date:

Tuesday, May 14, 2013

  Actual Average Record
Temperature  
Mean Temperature 66 °F 57 °F  
Max Temperature 91 °F 69 °F 95 °F (1932)
Min Temperature 41 °F 45 °F 25 °F (1895)
Degree Days  
Heating Degree Days 0 9  
Month to date heating degree days 223 146  
Since 1 July heating degree days 8152 7786  
Cooling Degree Days 1 1  
Month to date cooling degree days 1 8  
Year to date cooling degree days 4 12  
Growing Degree Days 16 (Base 50)    
Moisture  
Dew Point 43 °F    
Average Humidity 48    
Maximum Humidity 82    
Minimum Humidity 14    
Precipitation  
Precipitation T in 0.10 in 2.00 in (1905)
Month to date precipitation 2.81 1.50  
Year to date precipitation 13.58 7.68  
Snow  
Snow 0.00 in 0.00 in 0.00 in ()
Month to date snowfall 9.3 0.2  
Since 1 July snowfall 84.3 47.0  
Snow Depth 0.00 in    
Sea Level Pressure  
Sea Level Pressure 29.60 in    
Wind  
Wind Speed 8 mph (South)    
Max Wind Speed 28 mph    
Max Gust Speed 38 mph    
Visibility 10 miles    
Events Rain    
T = Trace of Precipitation, MM = Missing Value Source: NWS Daily Summary

Daily Weather History Graph

Daily Weather History Graph

Search for Another Location

Airport or City:

Trip Planner

Search our weather history database for the weather conditions in past years. The results will help you decide how hot, cold, wet, or windy it might be!

Date:

Astronomy

May. 14, 2013 Rise Set
Actual Time 5:38 AM CDT 8:27 PM CDT
Civil Twilight 5:04 AM CDT 9:01 PM CDT
Nautical Twilight 4:21 AM CDT 9:44 PM CDT
Astronomical Twilight 3:30 AM CDT 10:35 PM CDT
Moon 9:18 AM CDT (5/14) No Moon Set
Length of Visible Light 15h 57m
Length of Day
14h 49m
Waxing Crescent, 19% of the Moon is Illuminated
May 14
Waxing Crescent
May 17
First Quarter
May 24
Full
May 31
Last Quarter
Jun 8
New

Hourly Weather History & Observations

Time (CDT) Temp. Heat Index Dew Point Humidity Pressure Visibility Wind Dir Wind Speed Gust Speed Precip Events Conditions
12:56 AM 55.0 °F - 37.9 °F 53% 29.70 in 10.0 mi SSE 5.8 mph - N/A   Clear
1:56 AM 53.1 °F - 39.0 °F 59% 29.67 in 10.0 mi SSE 5.8 mph - N/A   Clear
2:56 AM 48.0 °F - 39.0 °F 71% 29.67 in 10.0 mi Calm Calm - N/A   Clear
3:56 AM 44.1 °F - 37.9 °F 79% 29.68 in 10.0 mi Calm Calm - N/A   Clear
4:56 AM 44.1 °F - 37.9 °F 79% 29.68 in 10.0 mi Calm Calm - N/A   Clear
5:56 AM 42.1 °F - 37.9 °F 85% 29.68 in 10.0 mi Calm Calm - N/A   Clear
6:56 AM 50.0 °F - 42.1 °F 74% 29.68 in 10.0 mi Calm Calm - N/A   Clear
7:56 AM 57.9 °F - 45.0 °F 62% 29.67 in 10.0 mi ENE 3.5 mph - N/A   Clear
8:56 AM 63.0 °F - 46.9 °F 56% 29.69 in 10.0 mi Calm Calm - N/A   Clear
9:56 AM 70.0 °F - 48.0 °F 46% 29.68 in 10.0 mi Calm Calm - N/A   Clear
10:56 AM 73.0 °F - 46.9 °F 39% 29.70 in 10.0 mi Calm Calm - N/A   Clear
11:56 AM 70.0 °F - 52.0 °F 53% 29.76 in 10.0 mi NE 6.9 mph - 0.00 in Rain Light Rain
12:56 PM 72.0 °F - 50.0 °F 46% 29.64 in 10.0 mi SE 17.3 mph 23.0 mph 0.00 in   Clear
1:56 PM 82.0 °F - 44.1 °F 26% 29.58 in 10.0 mi SE 15.0 mph - N/A   Clear
2:56 PM 86.0 °F - 44.1 °F 23% 29.55 in 10.0 mi SSE 18.4 mph 24.2 mph N/A   Clear
3:56 PM 89.1 °F - 42.1 °F 19% 29.51 in 10.0 mi South 16.1 mph 25.3 mph N/A   Clear
4:56 PM 90.0 °F - 46.0 °F 22% 29.47 in 10.0 mi SSW 16.1 mph 24.2 mph N/A   Clear
5:56 PM 90.0 °F - 48.9 °F 24% 29.45 in 10.0 mi South 10.4 mph 20.7 mph N/A   Clear
6:56 PM 89.1 °F - 51.1 °F 27% 29.43 in 10.0 mi SSE 6.9 mph - N/A   Clear
7:56 PM 84.0 °F 82.5 °F 53.1 °F 34% 29.44 in 10.0 mi WSW 3.5 mph - N/A   Clear
8:56 PM 84.9 °F - 43.0 °F 23% 29.46 in 10.0 mi West 15.0 mph - N/A   Clear
9:56 PM 80.1 °F - 27.0 °F 14% 29.51 in 10.0 mi WNW 16.1 mph 28.8 mph N/A   Clear
10:56 PM 73.9 °F - 32.0 °F 21% 29.55 in 10.0 mi WNW 9.2 mph 18.4 mph N/A   Clear
11:56 PM 73.9 °F - 35.1 °F 24% 29.58 in 10.0 mi WNW 11.5 mph - N/A   Clear